Change the Weather History Date:

Saturday, August 24, 2013

  Actual Average Record
Temperature  
Mean Temperature 81 °F 82 °F  
Max Temperature 89 °F 90 °F 95 °F (1947)
Min Temperature 73 °F 74 °F 68 °F (1957)
Degree Days  
Heating Degree Days 0 0  
Month to date heating degree days 0 0  
Since 1 June heating degree days 0 0  
Since 1 July heating degree days 0 0  
Cooling Degree Days 16 16  
Month to date cooling degree days 410 406  
Year to date cooling degree days 2298 2186  
Since 1 June cooling degree days 1391 1380  
Growing Degree Days 31 (Base 50)    
Moisture  
Dew Point 76 °F    
Average Humidity 84    
Maximum Humidity 100    
Minimum Humidity 68    
Precipitation  
Precipitation 0.00 in 0.24 in 3.09 in (1995)
Month to date precipitation 0.80 5.35  
Year to date precipitation 27.01 33.02  
Sea Level Pressure  
Sea Level Pressure 30.07 in    
Wind  
Wind Speed 6 mph (ENE)    
Max Wind Speed 25 mph    
Max Gust Speed 30 mph    
Visibility 9 miles    
Events Thunderstorm    
T = Trace of Precipitation, MM = Missing Value Source: NWS Daily Summary

Daily Weather History Graph

Daily Weather History Graph

Search for Another Location

Airport or City:

Trip Planner

Search our weather history database for the weather conditions in past years. The results will help you decide how hot, cold, wet, or windy it might be!

Date:

Astronomy

Aug. 24, 2013 Rise Set
Actual Time 6:56 AM EDT 7:50 PM EDT
Civil Twilight 6:32 AM EDT 8:14 PM EDT
Nautical Twilight 6:04 AM EDT 8:42 PM EDT
Astronomical Twilight 5:35 AM EDT 9:12 PM EDT
Moon 10:12 PM EDT (8/24) 10:28 AM EDT (8/24)
Length of Visible Light 13h 41m
Length of Day
12h 53m
Waning Gibbous, 84% of the Moon is Illuminated
Aug 24
Waning Gibbous
Aug 28
Last Quarter
Sep 5
New
Sep 12
First Quarter
Sep 19
Full

Hourly Weather History & Observations

Time (EDT) Temp. Heat Index Dew Point Humidity Pressure Visibility Wind Dir Wind Speed Gust Speed Precip Events Conditions
12:53 AM 80.1 °F 85.8 °F 77.0 °F 90% 30.02 in 10.0 mi SE 8.1 mph - N/A   Clear
1:53 AM 79.0 °F - 77.0 °F 94% 30.02 in 10.0 mi Calm Calm - N/A   Clear
2:53 AM 78.1 °F - 77.0 °F 96% 30.02 in 10.0 mi Calm Calm - N/A   Partly Cloudy
3:53 AM 75.9 °F - 75.9 °F 100% 30.02 in 10.0 mi Calm Calm - N/A   Clear
4:45 AM 75.2 °F - 75.2 °F 100% 30.02 in 2.5 mi Calm Calm - N/A   Clear
4:53 AM 75.0 °F - 75.0 °F 100% 30.01 in 8.0 mi Calm Calm - N/A   Clear
5:53 AM 73.9 °F - 73.9 °F 100% 30.02 in 8.0 mi North 3.5 mph - N/A   Clear
6:23 AM 73.4 °F - 73.4 °F 100% 30.03 in 1.8 mi Calm Calm - N/A   Clear
6:33 AM 73.4 °F - 73.4 °F 100% 30.04 in 3.0 mi Calm Calm - N/A   Clear
6:53 AM 73.9 °F - 73.9 °F 100% 30.04 in 7.0 mi Calm Calm - N/A   Clear
7:53 AM 77.0 °F - 77.0 °F 100% 30.06 in 9.0 mi Calm Calm - N/A   Clear
8:53 AM 82.9 °F 90.8 °F 75.9 °F 79% 30.07 in 10.0 mi ESE 3.5 mph - N/A   Clear
9:53 AM 84.9 °F 94.1 °F 75.9 °F 74% 30.09 in 10.0 mi Calm Calm - N/A   Scattered Clouds
10:53 AM 84.9 °F 92.1 °F 73.9 °F 69% 30.11 in 10.0 mi Calm Calm - N/A   Scattered Clouds
11:00 AM 84.2 °F 90.9 °F 73.4 °F 70% 30.11 in 10.0 mi Calm Calm - N/A   Mostly Cloudy
11:53 AM 88.0 °F 97.5 °F 75.0 °F 65% 30.10 in 10.0 mi Variable 6.9 mph - N/A   Mostly Cloudy
12:53 PM 88.0 °F 97.5 °F 75.0 °F 65% 30.09 in 10.0 mi ENE 10.4 mph - N/A   Partly Cloudy
1:13 PM 89.6 °F 99.8 °F 75.2 °F 62% 30.09 in 10.0 mi ENE 9.2 mph - N/A Thunderstorm Clear
1:33 PM 84.2 °F 92.3 °F 75.2 °F 74% 30.09 in 10.0 mi East 10.4 mph - N/A   Clear
1:53 PM 89.1 °F 103.2 °F 78.1 °F 70% 30.09 in 10.0 mi ENE 13.8 mph - N/A   Scattered Clouds
2:28 PM 87.8 °F 97.6 °F 75.2 °F 66% 30.08 in 10.0 mi NE 11.5 mph - N/A Thunderstorm Clear
2:53 PM 84.9 °F 94.1 °F 75.9 °F 74% 30.07 in 10.0 mi ENE 10.4 mph - N/A Thunderstorm Clear
3:02 PM 84.2 °F 92.3 °F 75.2 °F 74% 30.08 in 10.0 mi East 9.2 mph - N/A   Clear
3:04 PM 84.2 °F 92.3 °F 75.2 °F 74% 30.07 in 10.0 mi ENE 10.4 mph - N/A   Clear
3:53 PM 84.9 °F 95.3 °F 77.0 °F 77% 30.06 in 10.0 mi ENE 8.1 mph - N/A   Partly Cloudy
4:30 PM 86.0 °F 95.1 °F 75.2 °F 70% 30.08 in 10.0 mi NE 12.7 mph 18.4 mph N/A   Partly Cloudy
4:37 PM 84.2 °F 94.1 °F 77.0 °F 79% 30.08 in 10.0 mi NE 12.7 mph - N/A   Partly Cloudy
4:53 PM 84.9 °F 95.3 °F 77.0 °F 77% 30.07 in 10.0 mi ENE 11.5 mph - N/A   Partly Cloudy
5:24 PM 84.2 °F 92.3 °F 75.2 °F 74% 30.07 in 10.0 mi NE 11.5 mph - N/A   Mostly Cloudy
5:43 PM 80.6 °F 86.2 °F 75.2 °F 84% 30.08 in 10.0 mi NNE 17.3 mph 29.9 mph N/A   Mostly Cloudy
5:53 PM 80.1 °F 85.1 °F 75.0 °F 85% 30.08 in 10.0 mi NE 15.0 mph 26.5 mph N/A   Mostly Cloudy
6:53 PM 80.1 °F 85.4 °F 75.9 °F 87% 30.07 in 10.0 mi NE 10.4 mph - N/A   Clear
7:53 PM 80.1 °F 85.4 °F 75.9 °F 87% 30.07 in 10.0 mi East 16.1 mph 21.9 mph N/A   Partly Cloudy
8:53 PM 80.1 °F 85.4 °F 75.9 °F 87% 30.09 in 10.0 mi ESE 10.4 mph - N/A   Clear
9:53 PM 81.0 °F 86.7 °F 75.0 °F 82% 30.11 in 10.0 mi SE 10.4 mph - N/A   Clear
10:53 PM 81.0 °F 87.3 °F 75.9 °F 85% 30.11 in 10.0 mi SSE 6.9 mph - N/A   Partly Cloudy
11:53 PM 78.1 °F - 75.9 °F 93% 30.11 in 10.0 mi SW 3.5 mph - N/A   Clear